Location: *
(49.0044°N, 9.5056°E)
Time: 19:50:39
(UTC+00:00)

Cosmos 1023 Rocket - Pass Details

Date: 22 September 2019
Orbit: 737 x 772 km, 74.1° (Epoch: 20 October)

Event Time Altitude Azimuth Distance (km) Brightness Sun altitude
Rises 18:22:12 0° 338° (NNW) 3,215 8.3 -10.8°
Reaches altitude 10° 18:24:36 10° 340° (NNW) 2,281 7.4 -11.2°
Maximum altitude 18:29:45 70° 65° (ENE) 795 4.4 -12.0°
Drops below altitude 10° 18:34:50 10° 149° (SSE) 2,246 6.5 -12.8°
Enters shadow 18:35:12 - 150° (SSE) 2,388 6.6 -12.9°
